Location: Cucq
(50.4773°N, 1.6202°E)
Time: 06:32:18
(UTC+00:00)

Cosmos 1437 - Pass Details

Date: 07 August 2020
Orbit: 368 x 371 km, 81.2° (Epoch: 23 September)

Event Time Altitude Azimuth Distance (km) Brightness Sun altitude
Rises 01:36:56 0° 339° (NNW) 2,236 7.1 -19.8°
Reaches altitude 10° 01:39:03 10° 328° (NNW) 1,380 5.8 -19.7°
Enters shadow 01:40:42 24° 302° (WNW) 836 4.3 -19.6°
